Frenchville, ME

3:31 AM EST on January 20, 2018 (GMT -0500)
Northern Aroostook Regional

Weather History for KFVE - January, 2013

Change the Weather History Date:

Thursday, January 10, 2013

  Actual Average Record
Temperature  
Mean Temperature 26 °F 9 °F  
Max Temperature 33 °F 17 °F 40 °F (2016)
Min Temperature 18 °F 1 °F -16 °F (2004)
Degree Days  
Heating Degree Days 39    
Month to date heating degree days 565  
Since 1 July heating degree days 3976  
Cooling Degree Days 0    
Month to date cooling degree days 0  
Year to date cooling degree days 0  
Moisture  
Dew Point 23 °F    
Average Humidity 82    
Maximum Humidity 100    
Minimum Humidity 63    
Precipitation  
Precipitation 0.01 in 0.07 in 0.40 in (1997)
Month to date precipitation 0.05 1.08  
Year to date precipitation 0.05 1.08  
Sea Level Pressure  
Sea Level Pressure 29.94 in    
Wind  
Wind Speed 18 mph (NW)    
Max Wind Speed 30 mph    
Max Gust Speed 44 mph    
Visibility 7 miles    
Events Snow    
T = Trace of Precipitation, MM = Missing Value Source: NWS Daily Summary

Daily Weather History Graph

Daily Weather History Graph

Search for Another Location

Airport or City:

Trip Planner

Search our weather history database for the weather conditions in past years. The results will help you decide how hot, cold, wet, or windy it might be!

Date:

Astronomy

Jan. 10, 2013 Rise Set
Actual Time 7:18 AM EST 4:03 PM EST
Civil Twilight 6:43 AM EST 4:38 PM EST
Nautical Twilight 6:04 AM EST 5:17 PM EST
Astronomical Twilight 5:28 AM EST 5:54 PM EST
Moon 5:54 AM EST (1/10) 3:08 PM EST (1/10)
Length of Visible Light 9h 55m
Length of Day
8h 45m
Waning Crescent, 2% of the Moon is Illuminated
Jan 10
Waning Crescent
Jan 11
New
Jan 18
First Quarter
Jan 26
Full
Feb 3
Last Quarter

Hourly Weather History & Observations

Time (EST) Temp. Windchill Dew Point Humidity Pressure Visibility Wind Dir Wind Speed Gust Speed Precip Events Conditions
12:02 AM 28.4 °F 23.3 °F 28.4 °F 100% 29.61 in 3.0 mi SW 4.6 mph - 0.00 in Snow Light Snow
12:17 AM 28.4 °F 21.2 °F 28.4 °F 100% 29.61 in 3.0 mi WSW 6.9 mph - 0.00 in Snow Light Snow
12:40 AM 30.2 °F 21.9 °F 28.4 °F 93% 29.61 in 3.0 mi West 9.2 mph - 0.00 in Snow Light Snow
12:53 AM 30.0 °F 21.1 °F 28.9 °F 96% 29.65 in 2.0 mi West 10.4 mph - 0.00 in Snow Light Snow
1:02 AM 30.2 °F 21.3 °F 28.4 °F 93% 29.62 in 1.5 mi West 10.4 mph - 0.00 in Snow Light Snow
1:05 AM 30.2 °F 21.3 °F 28.4 °F 93% 29.62 in 1.5 mi West 10.4 mph - 0.00 in Snow Light Snow
1:27 AM 30.2 °F 20.8 °F 28.4 °F 93% 29.63 in 2.0 mi West 11.5 mph - 0.01 in Snow Light Snow
1:53 AM 30.0 °F 20.5 °F 28.9 °F 96% 29.68 in 3.0 mi WNW 11.5 mph - 0.01 in Snow Light Snow
2:42 AM 30.2 °F 19.8 °F 28.4 °F 93% 29.66 in 5.0 mi WNW 13.8 mph - 0.00 in Snow Light Snow
2:53 AM 30.9 °F 19.1 °F 28.9 °F 92% 29.70 in 4.0 mi WNW 18.4 mph - 0.00 in Snow Light Snow
2:59 AM 30.2 °F 18.1 °F 28.4 °F 93% 29.67 in 4.0 mi WNW 18.4 mph 25.3 mph 0.00 in Snow Light Snow
3:35 AM 30.2 °F 19.3 °F 28.4 °F 93% 29.69 in 3.0 mi WNW 15.0 mph 23.0 mph 0.00 in Snow Light Snow
3:46 AM 30.2 °F 18.5 °F 28.4 °F 93% 29.70 in 2.5 mi WNW 17.3 mph 24.2 mph 0.00 in Snow Light Snow
3:51 AM 30.2 °F 18.5 °F 28.4 °F 93% 29.70 in 3.0 mi WNW 17.3 mph 25.3 mph 0.00 in Snow Light Snow
3:53 AM 30.9 °F 19.8 °F 28.0 °F 89% 29.74 in 3.0 mi WNW 16.1 mph 25.3 mph 0.00 in Snow Light Snow
4:53 AM 30.9 °F 19.8 °F 28.0 °F 89% 29.78 in 2.5 mi NW 16.1 mph - 0.00 in Snow Light Snow
5:05 AM 30.2 °F 18.1 °F 28.4 °F 93% 29.75 in 5.0 mi NW 18.4 mph 26.5 mph 0.00 in Snow Light Snow
5:53 AM 32.0 °F 19.5 °F 27.0 °F 82% 29.82 in 10.0 mi NW 21.9 mph 28.8 mph 0.00 in   Overcast
6:31 AM 32.0 °F 21.2 °F 26.6 °F 80% 29.82 in 10.0 mi NW 16.1 mph - 0.00 in   Overcast
6:53 AM 32.0 °F 22.5 °F 27.0 °F 82% 29.87 in 10.0 mi NW 12.7 mph 24.2 mph 0.00 in   Overcast
7:20 AM 32.0 °F 22.1 °F 26.6 °F 80% 29.85 in 10.0 mi NW 13.8 mph 21.9 mph N/A   Overcast
7:53 AM 33.1 °F 22.2 °F 26.1 °F 75% 29.91 in 10.0 mi NW 17.3 mph 25.3 mph N/A   Overcast
8:53 AM 33.1 °F 23.0 °F 26.1 °F 75% 29.96 in 10.0 mi NW 15.0 mph 24.2 mph 0.00 in   Overcast
9:34 AM 32.0 °F 20.8 °F 26.6 °F 80% 29.95 in 10.0 mi WNW 17.3 mph 26.5 mph 0.00 in   Overcast
9:53 AM 32.0 °F 20.1 °F 25.0 °F 75% 30.00 in 9.0 mi WNW 19.6 mph 33.4 mph 0.00 in   Overcast
10:53 AM 30.9 °F 16.7 °F 21.9 °F 69% 30.02 in 5.0 mi NW 27.6 mph 35.7 mph 0.00 in Snow Light Snow
11:53 AM 30.0 °F 20.0 °F 21.0 °F 69% 30.04 in 10.0 mi NW 12.7 mph 31.1 mph 0.00 in   Overcast
12:53 PM 28.9 °F 14.8 °F 19.0 °F 67% 30.09 in 6.0 mi NNW 24.2 mph 39.1 mph 0.00 in   Overcast
1:53 PM 28.9 °F 14.3 °F 19.0 °F 67% 30.14 in 10.0 mi NNW 26.5 mph 34.5 mph 0.00 in   Overcast
2:16 PM 28.4 °F 15.4 °F 17.6 °F 64% 30.12 in 10.0 mi NW 19.6 mph 28.8 mph 0.00 in   Mostly Cloudy
2:53 PM 28.0 °F 14.6 °F 17.1 °F 63% 30.17 in 10.0 mi NW 20.7 mph 36.8 mph 0.00 in   Mostly Cloudy
3:53 PM 26.1 °F 12.3 °F 16.0 °F 66% 30.23 in 10.0 mi NW 19.6 mph 33.4 mph 0.00 in   Mostly Cloudy
4:18 PM 24.8 °F 9.6 °F 15.8 °F 69% 30.20 in 10.0 mi NW 23.0 mph 31.1 mph 0.00 in   Scattered Clouds
4:53 PM 24.1 °F 9.4 °F 16.0 °F 71% 30.26 in 10.0 mi NW 20.7 mph 33.4 mph 0.00 in   Clear
5:53 PM 23.0 °F 7.6 °F 15.1 °F 72% 30.32 in 10.0 mi NW 21.9 mph 38.0 mph N/A   Clear
6:53 PM 23.0 °F 10.6 °F 15.1 °F 72% 30.38 in 10.0 mi NW 13.8 mph 21.9 mph N/A   Clear
7:53 PM 21.9 °F 8.2 °F 14.0 °F 72% 30.41 in 10.0 mi NW 16.1 mph 29.9 mph N/A   Clear
8:53 PM 21.9 °F 7.3 °F 14.0 °F 72% 30.43 in 10.0 mi NNW 18.4 mph 27.6 mph N/A   Clear
9:53 PM 19.9 °F 5.7 °F 14.0 °F 78% 30.44 in 10.0 mi NNW 16.1 mph - N/A   Clear
10:53 PM 19.9 °F 7.9 °F 14.0 °F 78% 30.43 in 10.0 mi NW 11.5 mph - N/A   Clear
11:53 PM 19.0 °F 6.1 °F 14.0 °F 81% 30.42 in 10.0 mi North 12.7 mph - N/A   Clear